Miscellaneous Local Product
Issued by NWS Hastings, NE

Home | Current Version | Previous Version | Text Only | Print | Product List | Glossary Off
Versions: 1 2 3 4 5 6 7 8 9 10 11 12 13 14 15 16 17 18 19 20 21 22 23 24 25 26 27 28 29 30 31 32 33 34 35 36 37 38 39 40 41 42 43 44 45 46 47 48 49 50

000
AXUS43 KGID 041602
MISGRI

GID CWA HOURLY WEATHER ROUNDUP
NATIONAL WEATHER SERVICE HASTINGS NE
1100 AM CDT TUE AUG 04 2015

NOTE: "FAIR" INDICATES FEW OR NO CLOUDS BELOW 12,000 FEET WITH NO
SIGNIFICANT WEATHER AND/OR OBSTRUCTIONS TO VISIBILITY.

...SOUTH CENTRAL NEBRASKA...

CITY           SKY/WX    TMP DP  RH WIND       PRES   REMARKS
GRAND ISLAND   MOSUNNY   74  65  73 E12       30.00F
HASTINGS       CLOUDY    72  63  73 E16G25    29.99F
KEARNEY        CLOUDY    75  64  69 E18       29.99F
ORD            MOSUNNY   71  64  78 SE12      29.98F
YORK             N/A     73  68  83 E10       30.00F
AURORA         MOSUNNY   74  67  79 E12       29.99F
LEXINGTON      CLOUDY    71  67  88 E13G22    29.99F
HOLDREGE       CLOUDY    68  66  96 E18G26    29.98F
HEBRON         CLOUDY    74  65  71 E13       30.00F

...NEBRASKA PANHANDLE...

CITY           SKY/WX    TMP DP  RH WIND       PRES   REMARKS
CHADRON        MOSUNNY   77  61  57 SE20G30   29.95F
ALLIANCE       PTSUNNY   67  62  84 SE20      30.02F
SCOTTSBLUFF    PTSUNNY   70  56  61 SE10      30.01R
SIDNEY         MOSUNNY   66  58  75 E12       30.03F

...WESTERN AND NORTH CENTRAL NEBRASKA...

CITY           SKY/WX    TMP DP  RH WIND       PRES   REMARKS
VALENTINE      NOT AVBL
AINSWORTH      CLOUDY    72  62  71 S20       29.95F
ONEILL         CLOUDY    68  65  90 SE15      29.97F
BROKEN BOW     PTSUNNY   75  59  57 E15G24    30.00F
IMPERIAL       PTSUNNY   75  65  70 E12       29.97F
NORTH PLATTE   CLOUDY    67  64  90 E15G28    29.98F
MCCOOK         TSTM      70  68  93 NE12      29.97R FOG

...EASTERN NEBRASKA...

CITY           SKY/WX    TMP DP  RH WIND       PRES   REMARKS
NORFOLK        CLOUDY    68  64  87 NE6       30.01S
SO SIOUX CITY  CLOUDY    71  64  78 S7        30.03R
TEKAMAH        CLOUDY    69  64  84 S6        30.05R
COLUMBUS       CLOUDY    66  61  82 SE3       30.00F
ALBION         PTSUNNY   65  63  94 S7        30.01F
OMAHA EPPLEY   LGT RAIN  68  66  93 SE14      30.03F
OFFUTT AFB     LGT RAIN  67  65  94 E10       30.00F
MILLARD        LGT RAIN  68  64  89 SE6       30.00F
LINCOLN        PTSUNNY   73  69  87 E10       30.01F
NEBRASKA CITY  LGT RAIN  67  67  99 E8        30.02F
BEATRICE       PTSUNNY   73  65  76 E15       30.01F
FALLS CITY     CLOUDY    74  67  78 E10       30.02R

...NORTHERN KANSAS...

CITY           SKY/WX    TMP DP  RH WIND       PRES   REMARKS
GOODLAND       SUNNY     80  65  59 S6        29.96F
HILL CITY      CLOUDY    81  69  67 SE9       29.93F
NORTON         MOSUNNY   75  64  69 E12       29.93F
PHILLIPSBURG   SUNNY     81  70  69 E8        29.94F
SMITH CENTER   PTSUNNY   75  70  83 NE21      29.95F
HAYS           CLOUDY    81  64  57 SW6       29.95S
RUSSELL        PTSUNNY   79  69  71 S9        29.94F
CONCORDIA      PTSUNNY   79  71  76 E9        29.97S
SALINA         CLOUDY    83  69  62 SE6       29.94S
TOPEKA         CLOUDY    81  72  74 CALM      29.99R



USA.gov is the U.S. government's official web portal to all federal, state and local government web resources and services.